[[{"header":{"parameterUnit":"m.s-1","parameterCategory":1,"la1":30.2991,"la2":30.254,"lo1":-89.0895,"lo2":-89.0444,"dy":0.0017,"dx":0.0017,"nx":28,"ny":28,"refTime":"2024-08-14T21:00:00:Z","depth":0,"parameterNumber":2,"parameterNumberName":"U-component_of_WINDS"},"data":[0,0,0,0,0,0,0,0,0,0,0,0,0,0,0,0,0,0,0,0,0,0,0,0,0,0,0,0,0,0,0,0,0,0,0,0,0,0,0,0,0,0,0,0,0,0,0,0,0,0,0,0,0,0,0,0,0,0,0.9987,0.9986,0,0.9929,0.9928,0.9928,0.9807,0.9804,0.9802,0.9799,0.9747,0.9748,0.9749,0,0,0,0,0,0,0,0,0,0,0,0,0,0.9998,0.9999,0.9987,0.9986,0.9985,0.9929,0.9928,0.9927,0.9807,0.9804,0.9801,0.9798,0.9747,0.9748,0.9749,0,0,0,0,0,0,0,0,0,0,0,0,0,0.9973,0.9999,0.9987,0.9918,0.9912,0.9929,0.9928,0.9927,0.9808,0.9804,0.98,0.9797,0.9746,0.9748,0.9749,0.983,0,0,0.9753,0.9753,0,0,0,0,0,0,0,0,0.9974,0.9972,0.9929,0.9923,0.9916,0.9871,0.9913,0.9895,0.9809,0.9847,0.9799,0.9795,0.9792,0.9789,0.9786,0.9828,0.9826,0.9753,0.9754,0.9754,0.9755,0,0,0,0,0,0,0,0.9976,0.9974,0.9964,0.9929,0.992,0.9892,0.9884,0.9909,0.9841,0.9844,0.9835,0.9829,0.9787,0.9785,0.9784,0.9825,0.9753,0.9754,0.9755,0.9755,0.9932,0.9935,0,0,0,0,0,0,0.9987,0.9976,0.9966,0.9962,0.9936,0.9895,0.9886,0.9889,0.984,0.9829,0.9832,0.9824,0.9785,0.9783,0.9782,0.9875,0.9754,0.9756,0.9756,0.9928,0.9932,0.9937,0,0,0,0,0,0,0.9988,0.9987,0.9968,0.9967,0.9962,0.9899,0.9903,0.989,0.9888,0.9832,0.982,0.9843,0.9782,0.978,0.9819,0.9872,0.9756,0.9757,0.9923,0.9929,0.9934,1.0063,0,0,0,0,0,0,0.9989,0.9988,1.0017,0.9968,0.9963,1.0005,0.9906,0.9892,0.989,0.9878,0.9838,0.9828,0.9779,0.9818,0.982,0.9872,0.9758,0.9918,0.9926,0.9933,1.0054,1.0072,1.0088,0,0,0,0,0,0.9989,1.0057,1.002,1.0019,0.9998,1.0008,1.0005,0.9946,0.9894,0.9924,0.9888,0.9829,0.9865,0.9823,0.9825,0.9877,0.9915,0.9924,0.9932,1.0046,1.0069,1.0088,0,0,0,0,0,0,1.0117,1.005,1.0007,1.0061,1.0041,0.9988,1.0024,0.9971,0.9967,0.9957,0.9884,0.9877,0.9926,0.9905,0.9859,0.9954,0.988,0.989,0.9966,0.9988,1.0005,1.001,0.976,0,0,0,0,0,1.0151,1.0163,1.0104,1.0157,1.0149,1.0088,1.0091,1.0046,1.0024,1.0015,0.9982,0.9964,0.9971,0.9978,0.9981,1.0049,1.004,1.0086,1.0103,1.0118,1.0128,1.0164,1.0184,0.9965,0.9965,0.9965,0,0,1.0222,1.0187,1.0199,1.0182,1.0161,1.0178,1.0082,1.0104,1.0116,1.0019,1.0054,1.0029,1.0004,1.0058,1.008,1.0042,1.0186,1.0129,1.0141,1.0143,1.0175,1.0196,1.0215,0.9971,0.997,0.9969,0,0,1.0361,1.0334,1.0376,1.0356,1.0325,1.0284,1.0294,1.0249,1.0228,1.026,1.0188,1.0202,1.0216,1.0201,1.0196,1.0327,1.0274,1.033,1.0423,1.0458,1.0476,1.0491,1.054,1.0558,1.034,1.034,1.0341,0,1.0454,1.0474,1.0404,1.043,1.0425,1.0335,1.0378,1.0363,1.0337,1.0336,1.0293,1.0308,1.0285,1.0335,1.0367,1.0364,1.0376,1.0336,1.0478,1.0493,1.0506,1.0552,1.057,1.0348,1.0347,1.0346,1.0345,0,1.0591,1.0606,1.0644,1.0617,1.0616,1.0651,1.0588,1.0596,1.0551,1.0515,1.055,1.0519,1.0515,1.0522,1.048,1.0567,1.0545,1.0491,1.0416,1.0535,1.0577,1.0594,1.0358,1.0355,1.0353,1.0352,0,0,1.0812,1.0744,1.076,1.0747,1.0705,1.0717,1.0747,1.0741,1.075,1.0733,1.0759,1.0771,1.0721,1.0715,1.0669,1.07,1.0809,1.0642,1.0641,1.0677,1.0906,1.0949,1.0971,1.0772,1.0775,1.0777,1.0909,0,1.0943,1.099,1.0928,1.0989,1.1003,1.0917,1.0944,1.0922,1.0889,1.0898,1.0861,1.0872,1.0803,1.0799,1.0826,1.079,1.0855,1.0779,1.0798,1.0799,1.081,1.0992,1.1038,1.1164,1.0925,1.0927,1.0929,0,1.1104,1.1093,1.1156,1.1109,1.1113,1.1138,1.1127,1.1135,1.1109,1.1083,1.1076,1.102,1.1048,1.0973,1.1013,1.0963,1.0967,1.095,1.0954,1.0956,1.0874,1.1002,1.1202,1.1223,1.0954,1.0952,1.0951,0,1.1262,1.1263,1.13,1.1291,1.1238,1.1258,1.1237,1.1207,1.1207,1.1198,1.1198,1.1193,1.1191,1.119,1.1135,1.1085,1.1182,1.1102,1.1164,1.1166,1.1191,1.1191,1.1398,1.1189,1.1188,1.1188,1.1188,0,1.1417,1.1459,1.137,1.1394,1.1439,1.1367,1.1414,1.1385,1.1359,1.1377,1.1301,1.132,1.1245,1.1256,1.1213,1.1254,1.1253,1.1235,1.1224,1.1243,1.1246,1.1247,1.1238,1.1193,1.1192,1.1191,1.119,0,1.1603,1.1544,1.158,1.1525,1.1513,1.1549,1.1503,1.1524,1.1484,1.1508,1.1509,1.1449,1.1458,1.1402,1.1401,1.1372,1.1436,1.1408,1.1444,1.1437,1.1503,1.1499,1.172,1.1746,1.1518,1.152,1.1522,0,1.1707,1.1737,1.1685,1.1691,1.1673,1.1683,1.1682,1.1611,1.1614,1.1586,1.1611,1.1613,1.1612,1.1631,1.1588,1.1588,1.1562,1.1639,1.1561,1.1581,1.1566,1.1566,1.157,1.1657,1.166,1.1662,1.1664,0,1.19,1.1869,1.1869,1.186,1.186,1.1849,1.1834,1.1843,1.1767,1.1774,1.1781,1.178,1.1778,1.1783,1.1773,1.1754,1.1698,1.1688,1.1702,1.1725,1.1746,1.1738,1.1492,1.1684,1.1682,1.168,1.1679,1.1679,1.205,1.2073,1.204,1.2043,1.2023,1.201,1.2027,1.1989,1.1993,1.1985,1.1943,1.1958,1.1932,1.1913,1.1898,1.1911,1.1874,1.1895,1.1901,1.1908,1.1921,1.1741,1.1909,1.1908,1.1907,1.1907,1.1906,0,1.2241,1.2215,1.2218,1.2198,1.2201,1.2143,1.2123,1.213,1.2143,1.2122,1.2121,1.213,1.2134,1.209,1.2088,1.2107,1.2081,1.2109,1.2109,1.2106,1.1952,1.1941,1.213,1.213,1.213,1.213,1.213,1.213,1.2341,1.2378,1.2343,1.2369,1.2342,1.2355,1.2349,1.2338,1.232,1.2333,1.2334,1.2304,1.2275,1.227,1.2272,1.2259,1.2263,1.2301,1.228,1.2138,1.2117,1.2096,1.2085,1.2301,1.2302,1.2433,1.2434,1.2435]},{"header":{"parameterUnit":"m.s-1","parameterCategory":1,"la1":30.2991,"la2":30.254,"lo1":-89.0895,"lo2":-89.0444,"dy":0.0017,"dx":0.0017,"nx":28,"ny":28,"refTime":"2024-08-14T21:00:00:Z","depth":0,"parameterNumber":3,"parameterNumberName":"V-component_of_WINDS"},"data":[0,0,0,0,0,0,0,0,0,0,0,0,0,0,0,0,0,0,0,0,0,0,0,0,0,0,0,0,0,0,0,0,0,0,0,0,0,0,0,0,0,0,0,0,0,0,0,0,0,0,0,0,0,0,0,0,0,0,0.782,0.782,0,0.7838,0.7839,0.7839,0.7843,0.7842,0.7842,0.7842,0.7859,0.7859,0.786,0,0,0,0,0,0,0,0,0,0,0,0,0,0.7784,0.7785,0.782,0.782,0.782,0.7838,0.7839,0.7839,0.7843,0.7842,0.7842,0.7842,0.7859,0.7859,0.786,0,0,0,0,0,0,0,0,0,0,0,0,0,0.7801,0.7785,0.782,0.7824,0.7825,0.7838,0.7839,0.7839,0.7843,0.7842,0.7842,0.7842,0.7859,0.7859,0.786,0.787,0,0,0.7863,0.7863,0,0,0,0,0,0,0,0,0.78,0.7802,0.7823,0.7824,0.7825,0.7838,0.7832,0.7849,0.7843,0.7836,0.7842,0.7842,0.7852,0.7853,0.7857,0.787,0.7871,0.7863,0.7863,0.7864,0.7864,0,0,0,0,0,0,0,0.7799,0.7801,0.7827,0.7824,0.7824,0.7824,0.7826,0.7835,0.7845,0.7836,0.7837,0.7839,0.7852,0.7856,0.7858,0.7871,0.7863,0.7864,0.7864,0.7865,0.7892,0.7892,0,0,0,0,0,0,0.7797,0.78,0.7826,0.7828,0.7812,0.7825,0.7828,0.7834,0.7845,0.7846,0.7839,0.7839,0.7855,0.7857,0.7858,0.7869,0.7864,0.7865,0.7865,0.7892,0.7892,0.7892,0,0,0,0,0,0,0.7796,0.7799,0.7826,0.7814,0.7817,0.7826,0.7833,0.7834,0.7838,0.7847,0.7848,0.7842,0.7855,0.7857,0.7867,0.787,0.7865,0.7866,0.7891,0.7892,0.7892,0.7892,0,0,0,0,0,0,0.7795,0.7799,0.7804,0.7814,0.7818,0.7835,0.7833,0.7835,0.784,0.784,0.785,0.7851,0.7855,0.7865,0.7867,0.7871,0.7866,0.7891,0.7891,0.7892,0.7891,0.7892,0.7892,0,0,0,0,0,0.7794,0.7802,0.7804,0.7807,0.7824,0.7835,0.7837,0.7842,0.7841,0.7844,0.785,0.7851,0.7869,0.7866,0.7869,0.7872,0.7891,0.7891,0.7892,0.7891,0.7892,0.7892,0,0,0,0,0,0,0.7792,0.7804,0.7806,0.7818,0.7825,0.7835,0.7841,0.7843,0.785,0.785,0.7855,0.7857,0.7866,0.787,0.7867,0.7881,0.788,0.7881,0.7878,0.7879,0.788,0.7878,0.7867,0,0,0,0,0,0.7793,0.7801,0.7811,0.7821,0.7825,0.7832,0.7837,0.784,0.7848,0.7851,0.7857,0.7863,0.787,0.7875,0.7882,0.7892,0.7893,0.7896,0.7896,0.7896,0.7897,0.7902,0.7902,0.7894,0.7894,0.7894,0,0,0.7795,0.7802,0.7808,0.7821,0.7827,0.7835,0.7835,0.7843,0.7849,0.7852,0.7861,0.7866,0.7873,0.7883,0.7887,0.7886,0.79,0.7897,0.7897,0.7898,0.7902,0.7903,0.7904,0.7894,0.7894,0.7894,0,0,0.7802,0.7809,0.7818,0.7824,0.7833,0.7838,0.784,0.785,0.7853,0.7863,0.7865,0.7871,0.7883,0.7888,0.7893,0.7901,0.7902,0.7903,0.7905,0.791,0.791,0.7911,0.7913,0.7914,0.7904,0.7904,0.7904,0,0.7803,0.7816,0.7822,0.783,0.7835,0.7839,0.7847,0.7852,0.7863,0.7866,0.7865,0.7881,0.7886,0.7896,0.7898,0.7902,0.7903,0.7902,0.791,0.791,0.7911,0.7913,0.7914,0.7904,0.7904,0.7904,0.7904,0,0.7816,0.7825,0.7831,0.7842,0.7847,0.7856,0.7862,0.7867,0.7869,0.7873,0.7882,0.7889,0.7897,0.7899,0.7902,0.791,0.7909,0.7909,0.7907,0.7912,0.7914,0.7915,0.7904,0.7904,0.7904,0.7904,0,0,0.7823,0.7837,0.7839,0.7843,0.7853,0.786,0.7867,0.7876,0.788,0.7887,0.7892,0.7903,0.7902,0.7907,0.791,0.7914,0.7919,0.7913,0.7913,0.7913,0.7927,0.7927,0.7927,0.792,0.792,0.792,0.7926,0,0.7832,0.7846,0.7851,0.7863,0.787,0.7873,0.788,0.7886,0.789,0.7896,0.79,0.7907,0.7907,0.7909,0.7913,0.7917,0.7921,0.7917,0.7924,0.7924,0.7922,0.7929,0.7929,0.7934,0.7927,0.7927,0.7927,0,0.7843,0.7851,0.7863,0.7872,0.7875,0.7881,0.7888,0.7895,0.7901,0.7904,0.7909,0.7911,0.7918,0.7916,0.7925,0.7922,0.7925,0.7927,0.7928,0.7928,0.7926,0.7929,0.7936,0.7937,0.7929,0.7929,0.7928,0,0.7846,0.7859,0.7868,0.7872,0.7883,0.7886,0.7891,0.7897,0.7902,0.7908,0.7911,0.7917,0.7921,0.7926,0.7929,0.7928,0.7938,0.7936,0.7939,0.7939,0.7941,0.7941,0.7948,0.7944,0.7944,0.7944,0.7944,0,0.7855,0.7862,0.787,0.7875,0.7883,0.7888,0.7896,0.79,0.7905,0.7911,0.7914,0.7919,0.7924,0.7929,0.7932,0.7938,0.794,0.7941,0.7942,0.7941,0.7941,0.7943,0.7942,0.7944,0.7944,0.7944,0.7944,0,0.7859,0.7865,0.7875,0.7883,0.7886,0.7891,0.7898,0.7903,0.7907,0.7914,0.7915,0.7921,0.7928,0.7932,0.794,0.7942,0.7948,0.7949,0.7946,0.7947,0.7949,0.7949,0.7958,0.7959,0.7954,0.7954,0.7954,0,0.7864,0.787,0.7879,0.7883,0.7887,0.7894,0.7899,0.7904,0.7908,0.7916,0.7919,0.7926,0.7931,0.7941,0.7945,0.7951,0.7952,0.7955,0.7953,0.7951,0.7951,0.7951,0.7951,0.7955,0.7955,0.7955,0.7955,0,0.7871,0.7874,0.7881,0.7888,0.7894,0.79,0.7906,0.7909,0.7914,0.7919,0.7926,0.793,0.7938,0.7944,0.795,0.7954,0.7955,0.7956,0.7956,0.7955,0.7953,0.7954,0.7947,0.7955,0.7955,0.7955,0.7955,0.7955,0.7876,0.7881,0.7888,0.7895,0.79,0.7905,0.791,0.7915,0.7921,0.7928,0.793,0.7937,0.7942,0.7951,0.7954,0.7959,0.7959,0.796,0.796,0.7961,0.796,0.7953,0.796,0.796,0.796,0.796,0.796,0,0.7883,0.7888,0.7894,0.7903,0.7908,0.7909,0.7916,0.792,0.7926,0.7931,0.7937,0.7944,0.795,0.7955,0.796,0.7963,0.7964,0.7964,0.7964,0.7965,0.7961,0.7959,0.7964,0.7964,0.7964,0.7964,0.7964,0.7964,0.7887,0.7895,0.7899,0.7909,0.7913,0.792,0.7924,0.7928,0.7932,0.7941,0.7946,0.7949,0.7954,0.796,0.7965,0.7966,0.7968,0.7968,0.7969,0.7965,0.7965,0.7965,0.7963,0.7969,0.7969,0.7973,0.7973,0.7973]}]]